Yakutat, AK

9:59 PM AKDT on September 25, 2016 (GMT -0800)
Yakutat

Weather History for PAYA - March, 2013

Change the Weather History Date:

Friday, March 22, 2013

  Actual Average Record
Temperature  
Mean Temperature 23 °F 33 °F  
Max Temperature 33 °F 40 °F 59 °F (1998)
Min Temperature 12 °F 25 °F 2 °F (1971)
Degree Days  
Heating Degree Days 42 32  
Month to date heating degree days 811 738  
Since 1 July heating degree days 7056 6867  
Cooling Degree Days 0    
Month to date cooling degree days 0  
Year to date cooling degree days 0  
Moisture  
Dew Point 22 °F    
Average Humidity 0    
Maximum Humidity 0    
Minimum Humidity 0    
Precipitation  
Precipitation 0.12 in 0.37 in 2.21 in (1966)
Month to date precipitation 1.87 8.13  
Year to date precipitation 28.52 32.65  
Snow  
Snow 1.60 in 0.90 in 10.50 in (1966)
Month to date snowfall 14.7 19.8  
Since 1 July snowfall 130.2 122.0  
Snow Depth 21.00 in    
Sea Level Pressure  
Sea Level Pressure 30.26 in    
Wind  
Wind Speed 3 mph (ENE)    
Max Wind Speed 9 mph    
Max Gust Speed 13 mph    
Visibility 6 miles    
Events Fog , Snow    
T = Trace of Precipitation, MM = Missing Value Source: NWS Daily Summary

Daily Weather History Graph

Daily Weather History Graph

Search for Another Location

Airport or City:

Trip Planner

Search our weather history database for the weather conditions in past years. The results will help you decide how hot, cold, wet, or windy it might be!

Date:

Astronomy

Mar. 22, 2013 Rise Set
Actual Time 7:12 AM AKDT 7:39 PM AKDT
Civil Twilight 6:31 AM AKDT 8:20 PM AKDT
Nautical Twilight 5:42 AM AKDT 9:10 PM AKDT
Astronomical Twilight 4:48 AM AKDT 10:04 PM AKDT
Moon 2:17 PM AKDT (3/22) 5:18 AM AKDT (3/22)
Length of Visible Light 13h 48m
Length of Day
12h 26m
Waxing Gibbous, 78% of the Moon is Illuminated
Mar 22
Waxing Gibbous
Mar 27
Full
Apr 2
Last Quarter
Apr 10
New
Apr 18
First Quarter

Hourly Weather History & Observations

Time (AKDT) Temp. Windchill Dew Point Humidity Pressure Visibility Wind Dir Wind Speed Gust Speed Precip Events Conditions
12:53 AM 16.0 °F - 6.1 °F 65% 30.29 in 10.0 mi Calm Calm - N/A   Scattered Clouds
1:53 AM 12.0 °F - 6.1 °F 77% 30.30 in 10.0 mi Calm Calm - N/A   Partly Cloudy
2:53 AM 12.0 °F - 7.0 °F 80% 30.31 in 10.0 mi Calm Calm - N/A   Scattered Clouds
3:53 AM 15.1 °F - 7.0 °F 70% 30.31 in 10.0 mi Calm Calm - N/A   Overcast
4:53 AM 16.0 °F - 9.0 °F 74% 30.31 in 10.0 mi Calm Calm - N/A   Mostly Cloudy
5:53 AM 18.0 °F - 12.0 °F 78% 30.31 in 10.0 mi Calm Calm - N/A   Overcast
6:19 AM 19.4 °F 14.3 °F 10.4 °F 68% 30.31 in 10.0 mi NE 3.5 mph - N/A   Overcast
6:53 AM 19.0 °F - 12.0 °F 74% 30.30 in 5.0 mi Calm Calm - N/A   Haze
7:53 AM 19.0 °F - 12.0 °F 74% 30.29 in 10.0 mi Calm Calm - N/A   Mostly Cloudy
8:21 AM 21.2 °F - 12.2 °F 68% 30.28 in 10.0 mi Calm Calm - N/A   Scattered Clouds
8:41 AM 21.2 °F - 14.0 °F 74% 30.28 in 10.0 mi Calm Calm - N/A   Mostly Cloudy
8:53 AM 23.0 °F - 15.1 °F 72% 30.29 in 10.0 mi Calm Calm - N/A   Overcast
9:17 AM 24.8 °F - 15.8 °F 69% 30.29 in 10.0 mi Calm Calm - N/A   Scattered Clouds
9:53 AM 27.0 °F - 18.0 °F 69% 30.29 in 10.0 mi Calm Calm - N/A   Clear
10:53 AM 30.0 °F - 19.0 °F 64% 30.29 in 10.0 mi Calm Calm - N/A   Clear
11:53 AM 30.9 °F 27.5 °F 21.0 °F 67% 30.29 in 10.0 mi ENE 3.5 mph - N/A   Mostly Cloudy
12:53 PM 32.0 °F 26.4 °F 23.0 °F 69% 30.30 in 10.0 mi East 5.8 mph - N/A   Overcast
1:53 PM 33.1 °F 28.7 °F 23.0 °F 66% 30.29 in 10.0 mi ESE 4.6 mph - N/A   Overcast
2:53 PM 30.9 °F 24.3 °F 26.1 °F 82% 30.29 in 7.0 mi East 6.9 mph - 0.00 in Snow Light Snow
3:33 PM 30.2 °F 25.4 °F 26.6 °F 86% 30.28 in 3.0 mi ENE 4.6 mph - 0.00 in Snow Light Snow
3:53 PM 30.9 °F 26.2 °F 27.0 °F 85% 30.27 in 6.0 mi ENE 4.6 mph - 0.00 in Snow Light Snow
4:53 PM 30.9 °F 27.5 °F 27.0 °F 85% 30.27 in 3.0 mi ENE 3.5 mph - 0.00 in Snow Light Snow
5:39 PM 30.2 °F 26.7 °F 26.6 °F 86% 30.26 in 10.0 mi East 3.5 mph - 0.00 in   Overcast
5:53 PM 32.0 °F 28.7 °F 25.0 °F 75% 30.26 in 8.0 mi East 3.5 mph - 0.00 in   Overcast
6:53 PM 30.9 °F 26.2 °F 26.1 °F 82% 30.24 in 7.0 mi ENE 4.6 mph - 0.00 in Snow Light Snow
7:53 PM 30.9 °F 26.2 °F 24.1 °F 76% 30.23 in 10.0 mi East 4.6 mph - 0.00 in   Overcast
8:53 PM 30.0 °F 24.1 °F 25.0 °F 82% 30.24 in 2.5 mi ENE 5.8 mph - 0.00 in Snow Light Snow
9:11 PM 30.2 °F 23.4 °F 26.6 °F 86% 30.24 in 3.0 mi ENE 6.9 mph - 0.00 in Snow Light Snow
9:18 PM 30.2 °F 23.4 °F 26.6 °F 86% 30.24 in 2.0 mi ENE 6.9 mph - 0.00 in Snow Light Snow
9:27 PM 28.4 °F 21.2 °F 26.6 °F 93% 30.24 in 1.5 mi ENE 6.9 mph - 0.00 in Snow Light Snow
9:48 PM 28.4 °F 21.2 °F 26.6 °F 93% 30.23 in 2.5 mi ENE 6.9 mph - 0.01 in Snow Light Snow
9:49 PM 28.9 °F 21.9 °F 27.0 °F 92% 30.24 in 2.5 mi ENE 6.9 mph - 0.01 in Snow Light Snow
9:57 PM 28.4 °F 22.2 °F 26.6 °F 93% 30.23 in 3.0 mi ENE 5.8 mph - 0.00 in Snow Light Snow
10:36 PM 28.4 °F 19.7 °F 26.6 °F 93% 30.23 in 2.5 mi ENE 9.2 mph - 0.00 in Snow Light Snow
10:39 PM 28.4 °F 19.7 °F 26.6 °F 93% 30.22 in 1.2 mi ENE 9.2 mph - 0.00 in Snow Light Snow
10:42 PM 28.4 °F 19.7 °F 26.6 °F 93% 30.22 in 0.8 mi East 9.2 mph - 0.00 in Snow Light Snow
10:50 PM 28.4 °F 20.4 °F 26.6 °F 93% 30.22 in 0.5 mi ENE 8.1 mph - 0.01 in Fog , Snow Snow
10:53 PM 28.9 °F 21.9 °F 28.0 °F 96% 30.22 in 0.5 mi ENE 6.9 mph - 0.02 in Fog , Snow Snow
10:58 PM 28.4 °F 21.2 °F 28.4 °F 100% 30.22 in 1.0 mi ENE 6.9 mph - 0.00 in Snow Light Snow
11:01 PM 28.4 °F 21.2 °F 28.4 °F 100% 30.22 in 2.0 mi ENE 6.9 mph - 0.00 in Snow Light Snow
11:10 PM 28.4 °F 20.4 °F 28.4 °F 100% 30.22 in 3.0 mi ENE 8.1 mph - 0.00 in Snow Light Snow
11:14 PM 28.4 °F 20.4 °F 28.4 °F 100% 30.22 in 1.8 mi ENE 8.1 mph - 0.00 in Snow Light Snow
11:21 PM 28.4 °F 22.2 °F 28.4 °F 100% 30.22 in 0.8 mi East 5.8 mph - 0.01 in Snow Light Snow
11:34 PM 28.4 °F 21.2 °F 28.4 °F 100% 30.22 in 1.0 mi ENE 6.9 mph - 0.02 in Snow Light Snow
11:38 PM 28.4 °F 22.2 °F 28.4 °F 100% 30.22 in 0.8 mi East 5.8 mph - 0.02 in Snow Light Snow
11:53 PM 28.9 °F 21.1 °F 28.0 °F 96% 30.22 in 0.8 mi ENE 8.1 mph - 0.04 in Snow Light Snow